Location: Mexico
(19.4000°N, 99.1500°W)
Time: 04:58:33
(UTC-06:00)

ISS - Pass Details

Date: 21 March 2019
Orbit: 408 x 411 km, 51.6° (Epoch: 24 March)

Event Time Altitude Azimuth Distance (km) Brightness Sun altitude
Rises 19:28:21 0° 249° (WSW) 2,322 1.3 -10.4°
Reaches altitude 10° 19:30:55 10° 269° (W) 1,462 0.6 -11.0°
Maximum altitude 19:33:11 17° 313° (NW) 1,100 -0.9 -11.5°
Drops below altitude 10° 19:35:28 10° 358° (N) 1,463 -0.9 -12.0°
Sets 19:38:02 0° 19° (NNE) 2,324 -0.1 -12.6°
